period_start,C,m1,H,J0,J1,J2,J3,J4,J5,JA,JB,JC,JD,JJ,JK,JN,#
2017-03-02 00:01:59,0.32,9.04,0.00,19.03,22.09,26.28,14.94,51.83,1032.28,2043.72,1235.07,1649.77,1840.61,599.96,613.45,29.97,0000 0000 0000 0000 000000
2017-03-02 00:07:01,0.31,9.06,0.00,19.04,22.09,26.26,14.96,51.63,1032.24,2043.89,1233.26,1648.36,1838.98,599.52,612.93,30.02,0000 0000 0000 0000 000000
2017-03-02 00:12:02,0.32,9.08,0.00,19.05,22.08,26.29,14.99,51.55,1032.25,2043.94,1231.45,1646.88,1837.44,599.74,613.19,30.07,0000 0000 0000 0000 000000
2017-03-02 00:17:03,0.33,9.09,0.00,19.05,22.09,26.27,15.08,51.55,1032.24,2043.97,1229.57,1645.48,1835.84,600.22,613.54,30.12,0000 0000 0000 0000 000000
2017-03-02 00:22:04,0.33,9.11,0.00,19.06,22.09,26.29,15.02,51.55,1032.24,2043.97,1227.71,1643.88,1834.13,600.33,613.69,30.17,0000 0000 0000 0000 000000
2017-03-02 00:27:06,0.28,9.13,0.00,19.05,22.09,26.28,14.97,51.51,1032.24,2043.98,1226.16,1642.54,1832.56,599.81,613.19,30.22,0000 0000 0000 0000 000000
2017-03-02 00:32:07,0.28,9.14,0.00,19.07,22.09,26.29,15.00,51.44,1032.24,2043.99,1224.57,1641.23,1831.08,600.16,613.44,30.27,0000 0000 0000 0000 000000
2017-03-02 00:37:08,0.32,9.15,0.00,19.06,22.09,26.31,14.99,51.42,1032.24,2043.98,1222.79,1639.80,1829.52,599.90,613.19,30.32,0000 0000 0000 0000 000000
2017-03-02 00:42:10,0.25,9.17,0.00,19.08,22.09,26.31,15.03,51.72,1032.24,2043.97,1221.31,1638.46,1828.03,599.92,613.35,30.37,0000 0000 0000 0000 000000
2017-03-02 00:47:11,0.23,9.18,0.00,19.11,22.10,26.32,15.04,51.77,1032.24,2043.99,1220.00,1637.37,1826.70,600.13,613.47,30.42,0000 0000 0000 0000 000000
2017-03-02 00:52:12,0.23,9.19,0.00,19.11,22.11,26.33,15.03,51.82,1032.24,2043.98,1218.80,1636.36,1825.59,599.92,613.06,30.47,0000 0000 0000 0000 000000
2017-03-02 00:57:13,0.23,9.20,0.00,19.12,22.12,26.33,14.98,51.90,1032.24,2043.97,1217.46,1635.35,1824.44,599.94,613.24,30.53,0000 0000 0000 0000 000000
2017-03-02 01:02:15,0.22,9.22,0.00,19.14,22.12,26.33,14.98,51.80,1032.26,2043.95,1216.02,1634.18,1823.11,600.08,613.29,30.58,0000 0000 0000 0000 000000
2017-03-02 01:07:16,0.26,9.23,0.00,19.18,22.12,26.35,14.98,51.74,1032.25,2043.98,1214.81,1633.09,1821.80,600.01,613.08,30.63,0000 0000 0000 0000 000000
2017-03-02 01:12:17,0.23,9.24,0.00,19.17,22.14,26.39,15.02,51.83,1032.25,2043.97,1213.58,1632.04,1820.57,599.74,612.87,30.68,0000 0000 0000 0000 000000
2017-03-02 01:17:19,0.21,9.25,0.00,19.20,22.14,26.39,14.92,51.74,1032.25,2043.95,1212.25,1630.99,1819.39,599.98,613.00,30.73,0000 0000 0000 0000 000000
2017-03-02 01:22:20,0.25,9.27,0.00,19.23,22.15,26.39,14.99,51.81,1032.25,2043.96,1210.88,1629.90,1818.12,599.93,613.01,30.78,0000 0000 0000 0000 000000
2017-03-02 01:27:21,0.25,9.28,0.00,19.24,22.17,26.43,14.99,51.94,1032.25,2043.83,1209.52,1628.81,1816.79,600.04,612.99,30.83,0000 0000 0000 0000 000000
2017-03-02 01:32:22,0.20,9.29,0.00,19.26,22.17,26.43,14.97,51.83,1032.25,2043.74,1208.36,1627.72,1815.57,599.66,612.61,30.88,0000 0000 0000 0000 000000
2017-03-02 01:37:23,0.21,9.30,0.00,19.27,22.19,26.44,14.95,51.82,1032.24,2043.61,1207.23,1626.63,1814.23,600.10,613.03,30.93,0000 0000 0000 0000 000000
2017-03-02 01:42:24,0.26,9.31,0.00,19.30,22.19,26.46,15.00,51.90,1032.24,2043.38,1205.74,1625.41,1812.74,599.88,612.74,30.98,0000 0000 0000 0000 000000
2017-03-02 01:47:26,0.23,9.32,0.00,19.33,22.21,26.47,14.98,51.80,1032.24,2043.17,1204.25,1623.96,1811.14,599.98,612.98,31.03,0000 0000 0000 0000 000000
2017-03-02 01:52:27,0.32,9.34,0.00,19.35,22.22,26.49,14.98,51.73,1032.24,2043.08,1202.70,1622.58,1809.56,599.89,612.71,31.08,0000 0000 0000 0000 000000
2017-03-02 01:57:29,0.24,9.35,0.00,19.35,22.24,26.51,14.94,51.65,1032.22,2043.04,1201.20,1621.30,1808.11,599.85,612.58,31.13,0000 0000 0000 0000 000000
2017-03-02 02:02:30,0.32,9.37,0.00,19.36,22.24,26.52,15.03,51.82,1032.15,2043.02,1199.61,1619.86,1806.51,600.40,613.07,31.18,0000 0000 0000 0000 000000
2017-03-02 02:07:31,0.33,9.38,0.00,19.39,22.26,26.53,15.04,51.73,1032.19,2043.02,1197.84,1618.47,1804.85,600.08,612.69,31.23,0000 0000 0000 0000 000000
2017-03-02 02:12:33,0.35,9.40,0.00,19.39,22.27,26.57,15.00,51.76,1032.14,2043.01,1196.01,1616.81,1803.03,600.20,612.81,31.28,0000 0000 0000 0000 000000
2017-03-02 02:17:35,0.37,9.42,0.00,19.42,22.28,26.56,14.90,51.82,1032.15,2043.00,1194.05,1615.06,1801.11,599.82,612.32,31.33,0000 0000 0000 0000 000000
2017-03-02 02:22:36,0.40,9.44,0.00,19.44,22.29,26.57,15.04,51.85,1032.16,2043.00,1191.95,1613.15,1799.02,600.07,612.60,31.38,0000 0000 0000 0000 000000
2017-03-02 02:27:37,0.41,9.46,0.00,19.45,22.30,26.60,14.96,51.84,1032.16,2043.00,1189.72,1611.32,1796.97,599.94,612.38,31.43,0000 0000 0000 0000 000000
2017-03-02 02:32:38,0.47,9.48,0.00,19.47,22.32,26.62,14.91,51.81,1032.16,2042.99,1187.33,1609.20,1794.66,599.72,612.31,31.48,0000 0000 0000 0000 000000
2017-03-02 02:37:39,0.52,9.51,0.00,19.48,22.32,26.62,15.00,51.78,1032.19,2042.99,1184.62,1606.85,1792.10,600.40,612.94,31.53,0000 0000 0000 0000 000000
2017-03-02 02:42:40,0.49,9.53,0.00,19.49,22.34,26.63,15.00,51.83,1032.05,2042.99,1182.10,1604.50,1789.62,600.24,612.52,31.58,0000 0000 0000 0000 000000
2017-03-02 02:47:41,0.54,9.56,0.00,19.50,22.35,26.64,15.01,51.89,1031.85,2042.98,1179.42,1602.11,1786.91,599.98,612.13,31.63,0000 0000 0000 0000 000000
2017-03-02 02:52:43,0.54,9.59,0.00,19.52,22.37,26.67,14.99,51.79,1031.86,2042.98,1176.67,1599.55,1784.08,599.97,612.09,31.68,0000 0000 0000 0000 000000
2017-03-02 02:57:44,0.46,9.61,0.17,19.57,22.39,26.67,14.90,51.89,1031.79,2042.96,1174.30,1597.47,1781.50,599.76,611.74,31.73,0000 0000 0000 0000 000000
2017-03-02 03:02:45,0.41,9.63,1.00,19.57,22.40,26.69,14.95,51.78,1031.77,2042.91,1172.24,1595.50,1779.25,600.04,612.05,31.78,0000 0000 0000 0000 000000
2017-03-02 03:07:47,0.35,9.65,1.00,19.57,22.42,26.71,14.97,51.83,1031.83,2042.92,1170.60,1593.80,1777.33,599.89,612.18,31.83,0000 0000 0000 0000 000000
2017-03-02 03:12:48,0.20,9.66,1.00,19.58,22.43,26.71,14.90,51.66,1031.79,2042.63,1169.23,1592.50,1775.80,599.82,611.83,31.88,0000 0000 0000 0000 000000
2017-03-02 03:17:49,0.15,9.67,1.00,19.60,22.44,26.73,15.02,51.69,1031.79,2042.34,1168.24,1591.58,1774.69,599.94,611.87,31.93,0000 0000 0000 0000 000000
2017-03-02 03:22:51,0.17,9.68,1.00,19.64,22.47,26.75,14.90,51.63,1031.87,2042.10,1167.01,1590.77,1773.73,599.75,611.65,31.98,0000 0000 0000 0000 000000
2017-03-02 03:27:52,0.21,9.69,0.80,19.66,22.48,26.76,15.00,51.74,1032.01,2042.03,1165.80,1589.86,1772.72,600.12,612.04,32.03,0000 0000 0000 0000 000000
2017-03-02 03:32:53,0.21,9.70,0.00,19.70,22.49,26.79,14.98,51.71,1031.88,2042.01,1164.56,1588.98,1771.71,600.16,612.02,32.08,0000 0000 0000 0000 000000
2017-03-02 03:37:54,0.22,9.72,0.00,19.71,22.51,26.81,14.90,51.78,1031.98,2042.00,1163.40,1588.00,1770.55,599.99,611.85,32.13,0000 0000 0000 0000 000000
2017-03-02 03:42:56,0.21,9.73,0.00,19.72,22.53,26.80,14.94,51.82,1031.88,2042.00,1162.15,1587.01,1769.46,599.76,611.49,32.18,0000 0000 0000 0000 000000
2017-03-02 03:47:57,0.23,9.74,0.00,19.74,22.54,26.84,14.87,51.86,1031.83,2042.00,1160.96,1586.01,1768.37,599.88,611.61,32.23,0000 0000 0000 0000 000000
2017-03-02 03:52:59,0.25,9.75,0.00,19.78,22.57,26.86,15.00,51.86,1031.85,2042.00,1159.61,1585.04,1767.29,600.13,611.79,32.28,0000 0000 0000 0000 000000
2017-03-02 03:58:00,0.22,9.76,0.00,19.81,22.59,26.87,14.87,51.93,1031.77,2042.00,1158.42,1584.06,1766.17,599.85,611.38,32.33,0000 0000 0000 0000 000000
2017-03-02 04:03:02,0.23,9.78,0.00,19.86,22.61,26.89,14.92,51.95,1031.76,2041.99,1157.24,1582.97,1764.91,599.75,611.21,32.38,0000 0000 0000 0000 000000
2017-03-02 04:08:03,0.20,9.79,0.00,19.87,22.63,26.93,14.99,51.97,1031.76,2041.99,1156.32,1582.04,1763.71,600.36,611.73,32.43,0000 0000 0000 0000 000000
2017-03-02 04:13:05,0.21,9.80,0.00,19.90,22.65,26.94,14.91,52.07,1031.76,2041.97,1155.31,1581.15,1762.62,599.78,611.07,32.48,0000 0000 0000 0000 000000
2017-03-02 04:18:06,0.20,9.81,0.00,19.93,22.68,26.94,14.95,52.00,1031.76,2041.94,1154.13,1580.24,1761.57,599.92,611.22,32.54,0000 0000 0000 0000 000000
2017-03-02 04:23:07,0.23,9.82,0.00,19.93,22.70,26.96,14.98,51.96,1031.76,2041.73,1152.79,1579.22,1760.40,600.17,611.32,32.59,0000 0000 0000 0000 000000
2017-03-02 04:28:09,0.24,9.83,0.00,19.95,22.72,26.99,14.98,51.90,1031.76,2041.44,1151.39,1578.00,1759.03,600.06,611.27,32.64,0000 0000 0000 0000 000000
2017-03-02 04:33:10,0.23,9.84,0.00,19.97,22.74,27.00,14.93,51.96,1031.76,2041.19,1150.02,1576.79,1757.58,600.01,611.18,32.69,0000 0000 0000 0000 000000
2017-03-02 04:38:11,0.27,9.85,0.00,20.01,22.77,27.04,14.99,51.98,1031.76,2041.05,1148.66,1575.60,1756.27,600.33,611.44,32.74,0000 0000 0000 0000 000000
2017-03-02 04:43:13,0.26,9.87,0.00,20.04,22.79,27.05,14.94,51.92,1031.76,2041.02,1147.29,1574.38,1754.81,599.43,610.41,32.79,0000 0000 0000 0000 000000
2017-03-02 04:48:14,0.25,9.88,0.00,20.02,22.82,27.07,14.99,51.98,1031.76,2041.00,1145.91,1573.18,1753.42,600.06,611.16,32.84,0000 0000 0000 0000 000000
2017-03-02 04:53:15,0.26,9.89,0.00,20.04,22.84,27.10,14.97,52.08,1031.76,2041.00,1144.65,1572.00,1752.13,600.17,611.15,32.89,0000 0000 0000 0000 000000
2017-03-02 04:58:16,0.27,9.91,0.00,20.10,22.87,27.11,14.95,52.03,1031.76,2041.00,1143.33,1570.83,1750.78,600.06,610.97,32.94,0000 0000 0000 0000 000000
2017-03-02 05:03:18,0.29,9.92,0.00,20.13,22.89,27.14,14.95,52.07,1031.76,2041.00,1141.84,1569.68,1749.52,599.84,610.61,32.99,0000 0000 0000 0000 000000
2017-03-02 05:08:19,0.26,9.94,0.00,20.14,22.92,27.15,14.95,51.90,1031.75,2040.97,1140.45,1568.46,1748.14,600.26,611.05,33.04,0000 0000 0000 0000 000000
2017-03-02 05:13:21,0.27,9.95,0.00,20.16,22.95,27.17,14.98,51.97,1031.74,2040.98,1139.02,1567.24,1746.69,599.89,610.67,33.09,0000 0000 0000 0000 000000
2017-03-02 05:18:22,0.31,9.97,0.00,20.20,22.98,27.21,14.89,51.93,1031.65,2040.95,1137.71,1565.81,1745.12,599.76,610.35,33.14,0000 0000 0000 0000 000000
2017-03-02 05:23:23,0.27,9.98,0.00,20.22,23.01,27.23,14.91,51.98,1031.69,2040.59,1136.11,1564.19,1743.22,600.00,610.43,33.19,0000 0000 0000 0000 000000
2017-03-02 05:28:24,0.39,10.00,0.00,20.23,23.04,27.27,14.92,52.02,1031.75,2040.07,1134.02,1562.33,1741.17,600.01,610.63,33.24,0000 0000 0000 0000 000000
2017-03-02 05:33:25,0.44,10.02,0.00,20.25,23.07,27.28,14.91,51.98,1031.75,2040.03,1131.89,1560.32,1738.95,600.30,611.02,33.29,0000 0000 0000 0000 000000
2017-03-02 05:38:27,0.42,10.04,0.00,20.29,23.09,27.32,14.83,51.87,1031.75,2040.00,1129.94,1558.40,1736.72,600.04,610.58,33.34,0000 0000 0000 0000 000000
2017-03-02 05:43:28,0.39,10.06,0.00,20.29,23.12,27.34,14.93,51.94,1031.72,2040.00,1128.13,1556.56,1734.63,600.15,610.60,33.39,0000 0000 0000 0000 000000
2017-03-02 05:48:30,0.37,10.08,0.00,20.28,23.14,27.35,14.82,51.87,1031.70,2040.00,1126.43,1554.85,1732.72,599.47,609.95,33.44,0000 0000 0000 0000 000000
2017-03-02 05:53:31,0.27,10.10,0.00,20.31,23.16,27.38,14.93,51.74,1031.74,2039.99,1124.95,1553.53,1731.10,600.05,610.46,33.50,0000 0000 0000 0000 000000
2017-03-02 05:58:32,0.27,10.11,0.00,20.31,23.18,27.41,14.94,51.83,1031.67,2039.97,1123.73,1552.42,1729.83,600.02,610.39,33.55,0000 0000 0000 0000 000000
2017-03-02 06:03:33,0.25,10.12,0.00,20.34,23.20,27.42,14.94,51.71,1031.52,2039.95,1122.57,1551.38,1728.63,600.00,610.22,33.60,0000 0000 0000 0000 000000
2017-03-02 06:08:35,0.20,10.13,0.00,20.36,23.22,27.45,14.95,51.70,1031.35,2039.72,1121.30,1550.30,1727.44,600.17,610.23,33.65,0000 0000 0000 0000 000000
2017-03-02 06:13:37,0.19,10.15,0.00,20.36,23.24,27.46,14.87,51.84,1031.38,2039.33,1119.85,1549.14,1726.20,599.71,609.93,33.70,0000 0000 0000 0000 000000
2017-03-02 06:18:38,0.27,10.16,0.00,20.37,23.24,27.49,14.95,51.62,1031.51,2039.13,1118.46,1547.97,1724.85,599.99,610.19,33.75,0000 0000 0000 0000 000000
2017-03-02 06:23:39,0.26,10.17,0.00,20.39,23.27,27.51,14.92,51.71,1031.55,2039.07,1117.07,1546.85,1723.61,599.81,609.89,33.80,0000 0000 0000 0000 000000
2017-03-02 06:28:41,0.31,10.18,0.00,20.41,23.28,27.52,14.92,51.73,1031.51,2039.03,1115.63,1545.64,1722.30,599.99,610.15,33.85,0000 0000 0000 0000 000000
2017-03-02 06:33:42,0.29,10.20,0.00,20.41,23.29,27.53,14.88,51.76,1031.45,2039.01,1114.06,1544.46,1720.84,600.04,610.25,33.90,0000 0000 0000 0000 000000
2017-03-02 06:38:43,0.30,10.22,0.00,20.43,23.30,27.54,14.85,51.77,1031.48,2039.00,1112.55,1543.23,1719.48,600.03,610.07,33.95,0000 0000 0000 0000 000000
2017-03-02 06:43:44,0.29,10.23,0.00,20.44,23.32,27.56,14.86,51.67,1031.48,2039.00,1110.95,1541.95,1718.05,599.85,609.90,34.00,0000 0000 0000 0000 000000
2017-03-02 06:48:46,0.32,10.25,0.00,20.43,23.33,27.59,14.89,51.67,1031.44,2038.99,1109.44,1540.73,1716.66,599.80,609.80,34.05,0000 0000 0000 0000 000000
2017-03-02 06:53:47,0.30,10.26,0.00,20.41,23.34,27.59,14.85,51.66,1031.36,2038.99,1107.88,1539.56,1715.37,599.75,609.80,34.10,0000 0000 0000 0000 000000
2017-03-02 06:58:48,0.28,10.28,0.00,20.44,23.36,27.60,14.95,51.74,1031.48,2038.99,1106.43,1538.37,1713.96,600.28,610.28,34.15,0000 0000 0000 0000 000000
2017-03-02 07:03:49,0.30,10.30,0.00,20.46,23.37,27.61,14.86,51.69,1031.48,2038.98,1104.87,1537.13,1712.57,600.03,609.91,34.20,0000 0000 0000 0000 000000
2017-03-02 07:08:51,0.27,10.31,0.00,20.46,23.37,27.63,14.97,51.73,1031.42,2038.98,1103.49,1535.98,1711.37,600.04,610.03,34.25,0000 0000 0000 0000 000000
2017-03-02 07:13:52,0.24,10.32,0.00,20.48,23.39,27.64,14.92,51.77,1031.37,2038.97,1102.06,1535.00,1710.00,599.96,609.89,34.30,0000 0000 0000 0000 000000
2017-03-02 07:18:53,0.31,10.33,0.00,20.48,23.40,27.65,14.81,51.70,1031.35,2038.93,1100.63,1533.91,1708.71,599.67,609.50,34.36,0000 0000 0000 0000 000000
2017-03-02 07:23:55,0.31,10.35,0.00,20.48,23.42,27.65,14.89,51.79,1031.32,2038.88,1099.12,1532.63,1707.31,599.73,609.56,34.41,0000 0000 0000 0000 000000
2017-03-02 07:28:56,0.28,10.37,0.00,20.50,23.42,27.66,14.92,51.90,1031.30,2038.69,1097.55,1531.35,1705.71,599.75,609.55,34.46,0000 0000 0000 0000 000000
2017-03-02 07:33:57,0.24,10.38,0.00,20.54,23.44,27.68,14.87,51.87,1031.29,2038.33,1095.99,1530.00,1704.32,600.02,609.73,34.51,0000 0000 0000 0000 000000
2017-03-02 07:38:59,0.31,10.40,0.00,20.53,23.45,27.67,14.80,51.74,1031.28,2038.32,1094.54,1528.73,1702.90,599.60,609.48,34.56,0000 0000 0000 0000 000000
2017-03-02 07:44:00,0.26,10.41,0.00,20.50,23.45,27.70,14.99,51.71,1031.33,2038.09,1093.13,1527.59,1701.53,599.93,609.73,34.61,0000 0000 0000 0000 000000
2017-03-02 07:49:01,0.28,10.42,0.00,20.52,23.47,27.71,14.96,51.68,1031.33,2038.05,1091.76,1526.41,1700.30,600.15,609.90,34.66,0000 0000 0000 0000 000000
2017-03-02 07:54:02,0.27,10.44,0.00,20.50,23.47,27.71,14.91,51.80,1031.37,2038.06,1090.49,1525.32,1699.02,600.27,610.08,34.71,0000 0000 0000 0000 000000
2017-03-02 07:59:04,0.25,10.45,0.00,20.51,23.48,27.71,14.95,51.83,1031.30,2038.05,1089.18,1524.25,1697.77,600.16,609.99,34.76,0000 0000 0000 0000 000000
2017-03-02 08:04:05,0.27,10.46,0.00,20.56,23.49,27.72,14.89,51.90,1031.28,2038.03,1087.81,1523.14,1696.55,600.02,609.74,34.81,0000 0000 0000 0000 000000
2017-03-02 08:09:06,0.26,10.48,0.00,20.55,23.50,27.72,14.94,51.95,1031.27,2038.01,1086.65,1522.03,1695.35,600.14,609.77,34.86,0000 0000 0000 0000 000000
2017-03-02 08:14:08,0.28,10.49,0.00,20.54,23.50,27.71,14.88,51.98,1031.27,2038.00,1085.38,1520.82,1693.91,599.85,609.68,34.91,0000 0000 0000 0000 000000
2017-03-02 08:19:09,0.31,10.51,0.00,20.55,23.50,27.73,14.98,51.88,1031.27,2038.00,1083.91,1519.65,1692.57,599.84,609.57,34.96,0000 0000 0000 0000 000000
2017-03-02 08:24:10,0.30,10.52,0.00,20.58,23.52,27.73,14.99,51.89,1031.27,2038.00,1082.35,1518.33,1691.07,600.22,609.78,35.01,0000 0000 0000 0000 000000
2017-03-02 08:29:11,0.34,10.54,0.00,20.53,23.52,27.72,14.91,51.92,1031.26,2038.00,1080.76,1517.02,1689.62,600.14,609.96,35.06,0000 0000 0000 0000 000000
2017-03-02 08:34:13,0.30,10.56,0.00,20.54,23.52,27.73,14.96,51.89,1031.25,2038.00,1079.32,1515.73,1688.15,600.27,610.03,35.11,0000 0000 0000 0000 000000
2017-03-02 08:39:13,0.35,10.57,0.00,20.55,23.52,27.72,14.92,51.83,1031.22,2038.00,1077.74,1514.44,1686.70,600.11,609.74,35.16,0000 0000 0000 0000 000000
2017-03-02 08:44:15,0.28,10.59,0.00,20.51,23.53,27.73,14.88,51.86,1031.22,2038.00,1076.33,1513.17,1685.31,599.93,609.65,35.22,0000 0000 0000 0000 000000
2017-03-02 08:49:16,0.31,10.60,0.00,20.51,23.54,27.73,14.90,51.83,1031.19,2038.00,1074.83,1511.99,1683.91,600.02,609.96,35.27,0000 0000 0000 0000 000000
2017-03-02 08:54:17,0.33,10.62,0.00,20.55,23.55,27.71,14.94,51.77,1031.12,2038.00,1073.50,1510.72,1682.54,600.25,609.89,35.32,0000 0000 0000 0000 000000
2017-03-02 08:59:19,0.27,10.63,0.00,20.53,23.55,27.74,14.91,51.86,1030.98,2038.00,1072.05,1509.53,1681.16,599.94,609.53,35.37,0000 0000 0000 0000 000000
2017-03-02 09:04:20,0.32,10.65,0.00,20.52,23.55,27.74,14.98,51.83,1031.04,2038.00,1070.65,1508.39,1679.84,600.47,610.00,35.42,0000 0000 0000 0000 000000
2017-03-02 09:09:21,0.27,10.67,0.00,20.53,23.55,27.73,14.83,51.75,1031.06,2038.00,1069.27,1507.17,1678.53,599.97,609.39,35.47,0000 0000 0000 0000 000000
2017-03-02 09:14:22,0.30,10.68,0.00,20.51,23.55,27.72,14.86,51.88,1031.09,2038.00,1067.84,1505.92,1677.21,600.04,609.73,35.52,0000 0000 0000 0000 000000
2017-03-02 09:19:23,0.31,10.69,0.00,20.50,23.55,27.73,14.95,51.85,1031.10,2038.00,1066.56,1504.80,1675.86,600.02,609.67,35.57,0000 0000 0000 0000 000000
2017-03-02 09:24:25,0.28,10.71,0.00,20.53,23.55,27.72,14.88,51.81,1030.97,2038.00,1065.39,1503.68,1674.54,599.95,609.49,35.62,0000 0000 0000 0000 000000
2017-03-02 09:29:26,0.28,10.72,0.00,20.52,23.56,27.73,14.83,51.84,1030.88,2038.00,1063.95,1502.44,1673.20,599.97,609.50,35.67,0000 0000 0000 0000 000000
2017-03-02 09:34:27,0.30,10.74,0.00,20.50,23.56,27.72,14.89,51.78,1030.93,2037.98,1062.56,1501.28,1671.85,599.96,609.47,35.72,0000 0000 0000 0000 000000
2017-03-02 09:39:29,0.26,10.75,0.00,20.46,23.56,27.71,14.96,51.83,1030.81,2037.99,1061.26,1500.12,1670.62,600.20,609.82,35.77,0000 0000 0000 0000 000000
2017-03-02 09:44:30,0.26,10.77,0.00,20.49,23.56,27.72,14.91,51.77,1030.79,2037.99,1059.93,1499.07,1669.45,599.92,609.36,35.82,0000 0000 0000 0000 000000
2017-03-02 09:49:31,0.29,10.78,0.00,20.49,23.56,27.71,14.88,51.80,1030.78,2037.98,1058.60,1497.98,1668.30,600.28,609.77,35.87,0000 0000 0000 0000 000000
2017-03-02 09:54:32,0.26,10.80,0.00,20.44,23.56,27.70,14.86,51.72,1030.78,2037.97,1057.39,1496.93,1667.04,599.85,609.51,35.92,0000 0000 0000 0000 000000
2017-03-02 09:59:34,0.25,10.81,0.00,20.44,23.56,27.70,14.89,51.80,1030.78,2037.98,1056.09,1495.95,1665.85,599.81,609.40,35.97,0000 0000 0000 0000 000000
2017-03-02 10:04:35,0.27,10.82,0.00,20.47,23.56,27.69,14.91,51.84,1030.78,2037.99,1054.85,1494.93,1664.74,599.90,609.48,36.02,0000 0000 0000 0000 000000
2017-03-02 10:09:37,0.31,10.84,0.00,20.45,23.56,27.69,14.86,51.76,1030.78,2037.99,1053.62,1493.78,1663.54,599.95,609.46,36.07,0000 0000 0000 0000 000000
2017-03-02 10:14:38,0.25,10.85,0.00,20.43,23.56,27.70,14.92,51.83,1030.78,2037.98,1052.43,1492.74,1662.41,599.84,609.60,36.12,0000 0000 0000 0000 000000
2017-03-02 10:19:39,0.22,10.86,0.00,20.45,23.55,27.70,14.97,51.80,1030.78,2037.98,1051.19,1491.87,1661.36,600.16,609.72,36.18,0000 0000 0000 0000 000000
2017-03-02 10:24:41,0.22,10.88,0.00,20.44,23.55,27.70,14.90,51.76,1030.78,2037.99,1050.04,1491.00,1660.41,599.72,609.32,36.23,0000 0000 0000 0000 000000
2017-03-02 10:29:42,0.24,10.89,0.00,20.42,23.55,27.71,14.85,51.85,1030.78,2037.99,1048.90,1490.08,1659.47,599.92,609.44,36.28,0000 0000 0000 0000 000000
2017-03-02 10:34:43,0.26,10.90,0.00,20.42,23.55,27.67,14.94,51.81,1030.78,2037.98,1047.75,1489.13,1658.37,600.25,609.88,36.33,0000 0000 0000 0000 000000
2017-03-02 10:39:44,0.27,10.91,0.00,20.43,23.55,27.68,14.89,51.98,1030.78,2037.98,1046.50,1488.15,1657.22,600.07,609.69,36.38,0000 0000 0000 0000 000000
2017-03-02 10:44:46,0.23,10.93,0.00,20.42,23.55,27.65,14.95,51.83,1030.78,2037.98,1045.32,1487.30,1656.23,600.05,609.86,36.43,0000 0000 0000 0000 000000
2017-03-02 10:49:47,0.25,10.94,0.00,20.42,23.55,27.67,14.92,51.83,1030.78,2037.98,1044.08,1486.28,1655.16,599.99,609.65,36.48,0000 0000 0000 0000 000000
2017-03-02 10:54:48,0.25,10.95,0.00,20.42,23.55,27.66,14.92,51.83,1030.78,2037.98,1042.97,1485.36,1654.01,600.16,609.82,36.53,0000 0000 0000 0000 000000
2017-03-02 10:59:49,0.26,10.97,0.00,20.43,23.55,27.66,14.93,51.89,1030.77,2037.98,1041.77,1484.43,1653.03,600.08,609.70,36.58,0000 0000 0000 0000 000000
2017-03-02 11:04:51,0.19,10.98,0.00,20.40,23.55,27.66,14.92,51.92,1030.67,2037.98,1040.70,1483.83,1652.12,599.94,609.51,36.63,0000 0000 0000 0000 000000
2017-03-02 11:09:52,0.18,10.99,0.00,20.41,23.55,27.66,14.97,52.03,1030.57,2037.99,1039.72,1483.07,1651.78,600.15,609.82,36.68,0000 0000 0000 0000 000000
2017-03-02 11:14:53,0.14,10.99,0.00,20.42,23.55,27.64,14.85,52.02,1030.46,2037.99,1038.79,1482.82,1651.05,599.71,609.25,36.73,0000 0000 0000 0000 000000
2017-03-02 11:19:55,0.19,11.00,0.00,20.41,23.55,27.64,14.97,52.13,1030.41,2037.99,1037.88,1482.05,1650.36,600.58,610.07,36.78,0000 0000 0000 0000 000000
2017-03-02 11:24:56,0.20,11.01,0.00,20.40,23.54,27.63,14.83,52.05,1030.41,2037.99,1036.95,1481.39,1649.59,599.89,609.46,36.83,0000 0000 0000 0000 000000
2017-03-02 11:29:57,0.17,11.02,0.00,20.39,23.54,27.64,14.96,52.12,1030.35,2037.99,1036.02,1480.76,1648.80,600.28,609.79,36.88,0000 0000 0000 0000 000000
2017-03-02 11:34:59,0.18,11.03,0.00,20.39,23.54,27.62,14.92,52.26,1030.30,2037.99,1035.06,1480.03,1648.03,600.09,609.46,36.93,0000 0000 0000 0000 000000
2017-03-02 11:40:00,0.17,11.04,0.00,20.36,23.54,27.63,14.90,52.31,1030.29,2037.99,1034.12,1479.74,1647.55,599.98,609.52,36.98,0000 0000 0000 0000 000000
2017-03-02 11:45:01,0.15,11.05,0.00,20.36,23.54,27.62,14.91,52.38,1030.25,2037.99,1033.36,1479.05,1647.00,599.93,609.39,37.04,0000 0000 0000 0000 000000
2017-03-02 11:50:03,0.15,11.05,0.00,20.38,23.53,27.61,14.95,52.36,1029.90,2037.99,1032.62,1478.79,1646.34,600.15,609.41,37.09,0000 0000 0000 0000 000000
2017-03-02 11:55:04,0.16,11.06,0.00,20.37,23.52,27.61,14.89,52.34,1029.82,2037.99,1031.72,1478.04,1645.74,599.84,609.05,37.14,0000 0000 0000 0000 000000
2017-03-02 12:00:06,0.14,11.07,0.00,20.37,23.52,27.63,14.87,52.39,1029.83,2038.00,1030.92,1477.60,1645.02,600.18,609.39,37.19,0000 0000 0000 0000 000000
2017-03-02 12:05:07,0.16,11.08,0.00,20.37,23.52,27.61,14.93,52.73,1029.85,2038.00,1030.07,1477.01,1644.41,599.88,609.12,37.24,0000 0000 0000 0000 000000
2017-03-02 12:10:08,0.12,11.09,0.00,20.40,23.52,27.63,14.94,52.74,1029.96,2038.00,1029.31,1476.84,1643.98,599.91,609.26,37.29,0000 0000 0000 0000 000000
2017-03-02 12:15:10,0.16,11.09,0.00,20.39,23.52,27.63,14.88,52.63,1030.03,2038.00,1028.75,1476.09,1643.29,599.75,608.93,37.34,0000 0000 0000 0000 000000
2017-03-02 12:20:11,0.06,11.10,0.00,20.37,23.52,27.63,14.96,52.69,1029.83,2038.00,1028.04,1476.00,1643.00,600.12,609.27,37.39,0000 0000 0000 0000 000000
2017-03-02 12:25:12,0.11,11.10,0.00,20.40,23.52,27.62,14.88,52.68,1029.81,2038.00,1027.43,1475.92,1642.68,600.16,609.30,37.44,0000 0000 0000 0000 000000
2017-03-02 12:30:13,0.12,11.11,0.00,20.38,23.52,27.60,14.89,52.65,1029.81,2038.00,1026.97,1475.19,1642.04,600.18,609.36,37.49,0000 0000 0000 0000 000000
2017-03-02 12:35:15,0.11,11.12,0.00,20.37,23.51,27.61,14.92,52.68,1029.81,2038.01,1026.17,1475.01,1641.94,599.90,609.08,37.54,0000 0000 0000 0000 000000
2017-03-02 12:40:16,0.08,11.12,0.00,20.39,23.51,27.59,14.90,52.68,1029.81,2038.03,1025.76,1474.99,1641.26,600.06,609.18,37.59,0000 0000 0000 0000 000000
2017-03-02 12:45:17,0.12,11.13,0.00,20.38,23.51,27.62,14.92,52.69,1029.80,2038.03,1025.03,1474.56,1641.00,600.07,609.37,37.64,0000 0000 0000 0000 000000
2017-03-02 12:50:18,0.13,11.13,0.00,20.35,23.51,27.59,14.81,52.67,1029.80,2038.04,1024.50,1474.04,1640.69,599.96,609.19,37.69,0000 0000 0000 0000 000000